Location: Newark
(34.9500°N, 139.9667°E)
Time: 11:49:53
(UTC+00:00)

Vanguard 1 Rocket - Pass Details

Date: 16 December 2019
Orbit: 650 x 4226 km, 34.3° (Epoch: 26 January)

Event Time Altitude Azimuth Distance (km) Brightness Sun altitude
Rises 09:34:38 0° 238° (WSW) 8,464 13.5 -24.7°
Reaches altitude 10° 09:40:42 10° 236° (WSW) 7,387 12.9 -26.0°
Maximum altitude 10:05:10 70° 159° (SSE) 3,284 9.9 -30.9°
Enters shadow 10:11:02 48° 96° (E) 3,278 9.6 -32.1°
Drops below altitude 10° 10:19:00 10° 80° (E) 4,534 - -33.7°
Sets 10:21:44 0° 78° (ENE) 5,183 - -34.3°
